Year,Month,Day,Hour,Minute,Value (Times are PST for temperature in C)
2012,09,18,00,00,12.20
2012,09,18,00,01,12.20
2012,09,18,00,02,12.10
2012,09,18,00,03,12.10
2012,09,18,00,04,12.10
2012,09,18,00,05,12.00
2012,09,18,00,06,12.00
2012,09,18,00,07,11.90
2012,09,18,00,08,11.90
2012,09,18,00,09,11.90
2012,09,18,00,10,11.90
2012,09,18,00,11,11.90
2012,09,18,00,12,11.90
2012,09,18,00,13,11.90
2012,09,18,00,14,11.80
2012,09,18,00,15,11.80
2012,09,18,00,16,11.80
2012,09,18,00,17,11.80
2012,09,18,00,18,11.80
2012,09,18,00,19,11.80
2012,09,18,00,20,11.70
2012,09,18,00,21,11.80
2012,09,18,00,22,11.70
2012,09,18,00,23,11.70
2012,09,18,00,24,11.70
2012,09,18,00,25,11.70
2012,09,18,00,26,11.70
2012,09,18,00,27,11.70
2012,09,18,00,28,11.70
2012,09,18,00,29,11.70
2012,09,18,00,30,11.70
2012,09,18,00,31,11.70
2012,09,18,00,32,11.70
2012,09,18,00,33,11.70
2012,09,18,00,34,11.70
2012,09,18,00,35,11.70
2012,09,18,00,36,11.70
2012,09,18,00,37,11.70
2012,09,18,00,38,11.70
2012,09,18,00,39,11.70
2012,09,18,00,40,11.60
2012,09,18,00,41,11.60
2012,09,18,00,42,11.60
2012,09,18,00,43,11.60
2012,09,18,00,44,11.60
2012,09,18,00,45,11.60
2012,09,18,00,46,11.60
2012,09,18,00,47,11.60
2012,09,18,00,48,11.60
2012,09,18,00,49,11.50
2012,09,18,00,50,11.50
2012,09,18,00,51,11.50
2012,09,18,00,52,11.40
2012,09,18,00,53,11.40
2012,09,18,00,54,11.40
2012,09,18,00,55,11.40
2012,09,18,00,56,11.40
2012,09,18,00,57,11.40
2012,09,18,00,58,11.40
2012,09,18,00,59,11.40
2012,09,18,01,00,11.40
2012,09,18,01,01,11.40
2012,09,18,01,02,11.40
2012,09,18,01,03,11.40
2012,09,18,01,04,11.40
2012,09,18,01,05,11.40
2012,09,18,01,06,11.40
2012,09,18,01,07,11.40
2012,09,18,01,08,11.40
2012,09,18,01,09,11.40
2012,09,18,01,10,11.40
2012,09,18,01,11,11.40
2012,09,18,01,12,11.40
2012,09,18,01,13,11.40
2012,09,18,01,14,11.30
2012,09,18,01,15,11.30
2012,09,18,01,16,11.30
2012,09,18,01,17,11.30
2012,09,18,01,18,11.30
2012,09,18,01,19,11.30
2012,09,18,01,20,11.20
2012,09,18,01,21,11.20
2012,09,18,01,22,11.20
2012,09,18,01,23,11.20
2012,09,18,01,24,11.20
2012,09,18,01,25,11.20
2012,09,18,01,26,11.20
2012,09,18,01,27,11.20
2012,09,18,01,28,11.20
2012,09,18,01,29,11.20
2012,09,18,01,30,11.20
2012,09,18,01,31,11.20
2012,09,18,01,32,11.20
2012,09,18,01,33,11.20
2012,09,18,01,34,11.20
2012,09,18,01,35,11.10
2012,09,18,01,36,11.10
2012,09,18,01,37,11.10
2012,09,18,01,38,11.10
2012,09,18,01,39,11.10
2012,09,18,01,40,11.10
2012,09,18,01,41,11.10
2012,09,18,01,42,11.00
2012,09,18,01,43,11.00
2012,09,18,01,44,11.00
2012,09,18,01,45,11.00
2012,09,18,01,46,11.00
2012,09,18,01,47,10.90
2012,09,18,01,48,10.90
2012,09,18,01,49,10.90
2012,09,18,01,50,10.90
2012,09,18,01,51,10.90
2012,09,18,01,52,10.90
2012,09,18,01,53,10.80
2012,09,18,01,54,10.80
2012,09,18,01,55,10.80
2012,09,18,01,56,10.80
2012,09,18,01,57,10.80
2012,09,18,01,58,10.90
2012,09,18,01,59,10.90
2012,09,18,02,00,10.90
2012,09,18,02,01,10.90
2012,09,18,02,02,10.90
2012,09,18,02,03,10.90
2012,09,18,02,04,10.90
2012,09,18,02,05,10.90
2012,09,18,02,06,10.90
2012,09,18,02,07,10.90
2012,09,18,02,08,10.90
2012,09,18,02,09,10.90
2012,09,18,02,10,10.90
2012,09,18,02,11,10.90
2012,09,18,02,12,10.90
2012,09,18,02,13,10.90
2012,09,18,02,14,10.90
2012,09,18,02,15,10.90
2012,09,18,02,16,10.80
2012,09,18,02,17,10.80
2012,09,18,02,18,10.80
2012,09,18,02,19,10.80
2012,09,18,02,20,10.80
2012,09,18,02,21,10.80
2012,09,18,02,22,10.80
2012,09,18,02,23,10.70
2012,09,18,02,24,10.70
2012,09,18,02,25,10.70
2012,09,18,02,26,10.70
2012,09,18,02,27,10.70
2012,09,18,02,28,10.70
2012,09,18,02,29,10.70
2012,09,18,02,30,10.70
2012,09,18,02,31,10.70
2012,09,18,02,32,10.70
2012,09,18,02,33,10.60
2012,09,18,02,34,10.60
2012,09,18,02,35,10.60
2012,09,18,02,36,10.60
2012,09,18,02,37,10.60
2012,09,18,02,38,10.60
2012,09,18,02,39,10.60
2012,09,18,02,40,10.50
2012,09,18,02,41,10.50
2012,09,18,02,42,10.50
2012,09,18,02,43,10.40
2012,09,18,02,44,10.40
2012,09,18,02,45,10.40
2012,09,18,02,46,10.40
2012,09,18,02,47,10.40
2012,09,18,02,48,10.40
2012,09,18,02,49,10.40
2012,09,18,02,50,10.40
2012,09,18,02,51,10.40
2012,09,18,02,52,10.40
2012,09,18,02,53,10.40
2012,09,18,02,54,10.40
2012,09,18,02,55,10.50
2012,09,18,02,56,10.50
2012,09,18,02,57,10.50
2012,09,18,02,58,10.50
2012,09,18,02,59,10.40
2012,09,18,03,00,10.40
2012,09,18,03,01,10.40
2012,09,18,03,02,10.40
2012,09,18,03,03,10.50
2012,09,18,03,04,10.50
2012,09,18,03,05,10.50
2012,09,18,03,06,10.50
2012,09,18,03,07,10.50
2012,09,18,03,08,10.40
2012,09,18,03,09,10.50
2012,09,18,03,10,10.50
2012,09,18,03,11,10.50
2012,09,18,03,12,10.50
2012,09,18,03,13,10.40
2012,09,18,03,14,10.40
2012,09,18,03,15,10.40
2012,09,18,03,16,10.40
2012,09,18,03,17,10.40
2012,09,18,03,18,10.40
2012,09,18,03,19,10.40
2012,09,18,03,20,10.30
2012,09,18,03,21,10.30
2012,09,18,03,22,10.30
2012,09,18,03,23,10.30
2012,09,18,03,24,10.30
2012,09,18,03,25,10.20
2012,09,18,03,26,10.20
2012,09,18,03,27,10.20
2012,09,18,03,28,10.20
2012,09,18,03,29,10.10
2012,09,18,03,30,10.10
2012,09,18,03,31,10.10
2012,09,18,03,32,10.00
2012,09,18,03,33,10.00
2012,09,18,03,34,10.00
2012,09,18,03,35,9.90
2012,09,18,03,36,9.90
2012,09,18,03,37,9.80
2012,09,18,03,38,9.80
2012,09,18,03,39,9.80
2012,09,18,03,40,9.80
2012,09,18,03,41,9.70
2012,09,18,03,42,9.70
2012,09,18,03,43,9.70
2012,09,18,03,44,9.70
2012,09,18,03,45,9.70
2012,09,18,03,46,9.70
2012,09,18,03,47,9.70
2012,09,18,03,48,9.70
2012,09,18,03,49,9.70
2012,09,18,03,50,9.70
2012,09,18,03,51,9.70
2012,09,18,03,52,9.70
2012,09,18,03,53,9.60
2012,09,18,03,54,9.60
2012,09,18,03,55,9.60
2012,09,18,03,56,9.60
2012,09,18,03,57,9.60
2012,09,18,03,58,9.50
2012,09,18,03,59,9.50
2012,09,18,04,00,9.50
2012,09,18,04,01,9.50
2012,09,18,04,02,9.50
2012,09,18,04,03,9.50
2012,09,18,04,04,9.50
2012,09,18,04,05,9.50
2012,09,18,04,06,9.50
2012,09,18,04,07,9.50
2012,09,18,04,08,9.50
2012,09,18,04,09,9.60
2012,09,18,04,10,9.60
2012,09,18,04,11,9.60
2012,09,18,04,12,9.60
2012,09,18,04,13,9.60
2012,09,18,04,14,9.60
2012,09,18,04,15,9.60
2012,09,18,04,16,9.60
2012,09,18,04,17,9.60
2012,09,18,04,18,9.60
2012,09,18,04,19,9.60
2012,09,18,04,20,9.60
2012,09,18,04,21,9.60
2012,09,18,04,22,9.50
2012,09,18,04,23,9.50
2012,09,18,04,24,9.50
2012,09,18,04,25,9.50
2012,09,18,04,26,9.50
2012,09,18,04,27,9.50
2012,09,18,04,28,9.40
2012,09,18,04,29,9.40
2012,09,18,04,30,9.40
2012,09,18,04,31,9.40
2012,09,18,04,32,9.40
2012,09,18,04,33,9.40
2012,09,18,04,34,9.40
2012,09,18,04,35,9.30
2012,09,18,04,36,9.30
2012,09,18,04,37,9.30
2012,09,18,04,38,9.30
2012,09,18,04,39,9.30
2012,09,18,04,40,9.30
2012,09,18,04,41,9.30
2012,09,18,04,42,9.30
2012,09,18,04,43,9.30
2012,09,18,04,44,9.30
2012,09,18,04,45,9.30
2012,09,18,04,46,9.30
2012,09,18,04,47,9.30
2012,09,18,04,48,9.30
2012,09,18,04,49,9.30
2012,09,18,04,50,9.30
2012,09,18,04,51,9.30
2012,09,18,04,52,9.30
2012,09,18,04,53,9.20
2012,09,18,04,54,9.20
2012,09,18,04,55,9.20
2012,09,18,04,56,9.20
2012,09,18,04,57,9.20
2012,09,18,04,58,9.20
2012,09,18,04,59,9.20
2012,09,18,05,00,9.20
2012,09,18,05,01,9.20
2012,09,18,05,02,9.20
2012,09,18,05,03,9.20
2012,09,18,05,04,9.20
2012,09,18,05,05,9.20
2012,09,18,05,06,9.30
2012,09,18,05,07,9.30
2012,09,18,05,08,9.30
2012,09,18,05,09,9.30
2012,09,18,05,10,9.20
2012,09,18,05,11,9.20
2012,09,18,05,12,9.20
2012,09,18,05,13,9.20
2012,09,18,05,14,9.20
2012,09,18,05,15,9.20
2012,09,18,05,16,9.20
2012,09,18,05,17,9.10
2012,09,18,05,18,9.10
2012,09,18,05,19,9.10
2012,09,18,05,20,9.10
2012,09,18,05,21,9.10
2012,09,18,05,22,9.10
2012,09,18,05,23,9.10
2012,09,18,05,24,9.10
2012,09,18,05,25,9.10
2012,09,18,05,26,9.10
2012,09,18,05,27,9.10
2012,09,18,05,28,9.10
2012,09,18,05,29,9.10
2012,09,18,05,30,9.20
2012,09,18,05,31,9.20
2012,09,18,05,32,9.20
2012,09,18,05,33,9.20
2012,09,18,05,34,9.20
2012,09,18,05,35,9.30
2012,09,18,05,36,9.30
2012,09,18,05,37,9.30
2012,09,18,05,38,9.30
2012,09,18,05,39,9.20
2012,09,18,05,40,9.20
2012,09,18,05,41,9.20
2012,09,18,05,42,9.20
2012,09,18,05,43,9.20
2012,09,18,05,44,9.20
2012,09,18,05,45,9.20
2012,09,18,05,46,9.20
2012,09,18,05,47,9.20
2012,09,18,05,48,9.20
2012,09,18,05,49,9.20
2012,09,18,05,50,9.20
2012,09,18,05,51,9.20
2012,09,18,05,52,9.20
2012,09,18,05,53,9.10
2012,09,18,05,54,9.10
2012,09,18,05,55,9.10
2012,09,18,05,56,9.10
2012,09,18,05,57,9.10
2012,09,18,05,58,9.10
2012,09,18,05,59,9.10
2012,09,18,06,00,9.10
2012,09,18,06,01,9.00
2012,09,18,06,02,9.00
2012,09,18,06,03,9.00
2012,09,18,06,04,9.00
2012,09,18,06,05,8.90
2012,09,18,06,06,9.00
2012,09,18,06,07,9.00
2012,09,18,06,08,9.00
2012,09,18,06,09,9.00
2012,09,18,06,10,8.90
2012,09,18,06,11,8.90
2012,09,18,06,12,8.90
2012,09,18,06,13,8.90
2012,09,18,06,14,8.80
2012,09,18,06,15,8.80
2012,09,18,06,16,8.80
2012,09,18,06,17,8.70
2012,09,18,06,18,8.70
2012,09,18,06,19,8.70
2012,09,18,06,20,8.60
2012,09,18,06,21,8.60
2012,09,18,06,22,8.60
2012,09,18,06,23,8.60
2012,09,18,06,24,8.60
2012,09,18,06,25,8.60
2012,09,18,06,26,8.60
2012,09,18,06,27,8.60
2012,09,18,06,28,8.60
2012,09,18,06,29,8.60
2012,09,18,06,30,8.60
2012,09,18,06,31,8.60
2012,09,18,06,32,8.60
2012,09,18,06,33,8.60
2012,09,18,06,34,8.60
2012,09,18,06,35,8.60
2012,09,18,06,36,8.60
2012,09,18,06,37,8.60
2012,09,18,06,38,8.60
2012,09,18,06,39,8.60
2012,09,18,06,40,8.60
2012,09,18,06,41,8.60
2012,09,18,06,42,8.60
2012,09,18,06,43,8.60
2012,09,18,06,44,8.60
2012,09,18,06,45,8.60
2012,09,18,06,46,8.60
2012,09,18,06,47,8.60
2012,09,18,06,48,8.50
2012,09,18,06,49,8.50
2012,09,18,06,50,8.50
2012,09,18,06,51,8.50
2012,09,18,06,52,8.50
2012,09,18,06,53,8.50
2012,09,18,06,54,8.50
2012,09,18,06,55,8.50
2012,09,18,06,56,8.50
2012,09,18,06,57,8.50
2012,09,18,06,58,8.50
2012,09,18,06,59,8.50
2012,09,18,07,00,8.50
2012,09,18,07,01,8.50
2012,09,18,07,02,8.50
2012,09,18,07,03,8.50
2012,09,18,07,04,8.40
2012,09,18,07,05,8.40
2012,09,18,07,06,8.40
2012,09,18,07,07,8.40
2012,09,18,07,08,8.40
2012,09,18,07,09,8.40
2012,09,18,07,10,8.40
2012,09,18,07,11,8.40
2012,09,18,07,12,8.40
2012,09,18,07,13,8.30
2012,09,18,07,14,8.30
2012,09,18,07,15,8.30
2012,09,18,07,16,8.30
2012,09,18,07,17,8.30
2012,09,18,07,18,8.40
2012,09,18,07,19,8.40
2012,09,18,07,20,8.40
2012,09,18,07,21,8.40
2012,09,18,07,22,8.40
2012,09,18,07,23,8.40
2012,09,18,07,24,8.40
2012,09,18,07,25,8.40
2012,09,18,07,26,8.40
2012,09,18,07,27,8.40
2012,09,18,07,28,8.40
2012,09,18,07,29,8.40
2012,09,18,07,30,8.40
2012,09,18,07,31,8.40
2012,09,18,07,32,8.40
2012,09,18,07,33,8.50
2012,09,18,07,34,8.50
2012,09,18,07,35,8.50
2012,09,18,07,36,8.50
2012,09,18,07,37,8.50
2012,09,18,07,38,8.50
2012,09,18,07,39,8.60
2012,09,18,07,40,8.60
2012,09,18,07,41,8.60
2012,09,18,07,42,8.60
2012,09,18,07,43,8.60
2012,09,18,07,44,8.60
2012,09,18,07,45,8.70
2012,09,18,07,46,8.70
2012,09,18,07,47,8.80
2012,09,18,07,48,8.80
2012,09,18,07,49,8.80
2012,09,18,07,50,8.90
2012,09,18,07,51,9.00
2012,09,18,07,52,9.00
2012,09,18,07,53,9.10
2012,09,18,07,54,9.10
2012,09,18,07,55,9.20
2012,09,18,07,56,9.20
2012,09,18,07,57,9.30
2012,09,18,07,58,9.30
2012,09,18,07,59,9.40
2012,09,18,08,00,9.40
2012,09,18,08,01,9.50
2012,09,18,08,02,9.50
2012,09,18,08,03,9.60
2012,09,18,08,04,9.70
2012,09,18,08,05,9.70
2012,09,18,08,06,9.80
2012,09,18,08,07,9.80
2012,09,18,08,08,9.90
2012,09,18,08,09,9.90
2012,09,18,08,10,10.00
2012,09,18,08,11,10.10
2012,09,18,08,12,10.10
2012,09,18,08,13,10.20
2012,09,18,08,14,10.30
2012,09,18,08,15,10.30
2012,09,18,08,16,10.40
2012,09,18,08,17,10.50
2012,09,18,08,18,10.60
2012,09,18,08,19,10.70
2012,09,18,08,20,10.80
2012,09,18,08,21,10.90
2012,09,18,08,22,11.00
2012,09,18,08,23,11.10
2012,09,18,08,24,11.20
2012,09,18,08,25,11.30
2012,09,18,08,26,11.40
2012,09,18,08,27,11.50
2012,09,18,08,28,11.60
2012,09,18,08,29,11.70
2012,09,18,08,30,11.80
2012,09,18,08,31,11.90
2012,09,18,08,32,12.00
2012,09,18,08,33,12.10
2012,09,18,08,34,12.20
2012,09,18,08,35,12.20
2012,09,18,08,36,12.30
2012,09,18,08,37,12.40
2012,09,18,08,38,12.50
2012,09,18,08,39,12.60
2012,09,18,08,40,12.70
2012,09,18,08,41,12.80
2012,09,18,08,42,12.90
2012,09,18,08,43,13.00
2012,09,18,08,44,13.00
2012,09,18,08,45,13.10
2012,09,18,08,46,13.20
2012,09,18,08,47,13.30
2012,09,18,08,48,13.40
2012,09,18,08,49,13.50
2012,09,18,08,50,13.60
2012,09,18,08,51,13.70
2012,09,18,08,52,13.80
2012,09,18,08,53,13.90
2012,09,18,08,54,14.00
2012,09,18,08,55,14.10
2012,09,18,08,56,14.20
2012,09,18,08,57,14.30
2012,09,18,08,58,14.40
2012,09,18,08,59,14.60
2012,09,18,09,00,14.70
2012,09,18,09,01,14.80
2012,09,18,09,02,14.90
2012,09,18,09,03,15.10
2012,09,18,09,04,15.20
2012,09,18,09,05,15.30
2012,09,18,09,06,15.50
2012,09,18,09,07,15.60
2012,09,18,09,08,15.70
2012,09,18,09,09,15.90
2012,09,18,09,10,16.00
2012,09,18,09,11,16.20
2012,09,18,09,12,16.40
2012,09,18,09,13,16.60
2012,09,18,09,14,16.70
2012,09,18,09,15,16.90
2012,09,18,09,16,17.00
2012,09,18,09,17,17.20
2012,09,18,09,18,17.30
2012,09,18,09,19,17.40
2012,09,18,09,20,17.50
2012,09,18,09,21,17.60
2012,09,18,09,22,17.70
2012,09,18,09,23,17.80
2012,09,18,09,24,17.80
2012,09,18,09,25,17.90
2012,09,18,09,26,17.90
2012,09,18,09,27,18.00
2012,09,18,09,28,18.00
2012,09,18,09,29,18.00
2012,09,18,09,30,18.10
2012,09,18,09,31,18.20
2012,09,18,09,32,18.20
2012,09,18,09,33,18.30
2012,09,18,09,34,18.30
2012,09,18,09,35,18.40
2012,09,18,09,36,18.40
2012,09,18,09,37,18.50
2012,09,18,09,38,18.50
2012,09,18,09,39,18.60
2012,09,18,09,40,18.60
2012,09,18,09,41,18.70
2012,09,18,09,42,18.70
2012,09,18,09,43,18.70
2012,09,18,09,44,18.80
2012,09,18,09,45,18.80
2012,09,18,09,46,18.80
2012,09,18,09,47,18.80
2012,09,18,09,48,18.90
2012,09,18,09,49,18.90
2012,09,18,09,50,18.90
2012,09,18,09,51,18.90
2012,09,18,09,52,18.90
2012,09,18,09,53,18.90
2012,09,18,09,54,19.00
2012,09,18,09,55,19.00
2012,09,18,09,56,19.00
2012,09,18,09,57,19.00
2012,09,18,09,58,19.00
2012,09,18,09,59,19.00
2012,09,18,10,00,19.10
2012,09,18,10,01,19.10
2012,09,18,10,02,19.10
2012,09,18,10,03,19.10
2012,09,18,10,04,19.20
2012,09,18,10,05,19.20
2012,09,18,10,06,19.30
2012,09,18,10,07,19.30
2012,09,18,10,08,19.30
2012,09,18,10,09,19.30
2012,09,18,10,10,19.40
2012,09,18,10,11,19.40
2012,09,18,10,12,19.40
2012,09,18,10,13,19.40
2012,09,18,10,14,19.40
2012,09,18,10,15,19.40
2012,09,18,10,16,19.50
2012,09,18,10,17,19.50
2012,09,18,10,18,19.60
2012,09,18,10,19,19.60
2012,09,18,10,20,19.70
2012,09,18,10,21,19.70
2012,09,18,10,22,19.70
2012,09,18,10,23,19.80
2012,09,18,10,24,19.80
2012,09,18,10,25,19.80
2012,09,18,10,26,19.90
2012,09,18,10,27,19.90
2012,09,18,10,28,19.90
2012,09,18,10,29,19.90
2012,09,18,10,30,19.90
2012,09,18,10,31,19.90
2012,09,18,10,32,19.90
2012,09,18,10,33,20.00
2012,09,18,10,34,19.90
2012,09,18,10,35,19.90
2012,09,18,10,36,19.90
2012,09,18,10,37,19.90
2012,09,18,10,38,19.90
2012,09,18,10,39,20.00
2012,09,18,10,40,20.00
2012,09,18,10,41,20.00
2012,09,18,10,42,20.10
2012,09,18,10,43,20.20
2012,09,18,10,44,20.30
2012,09,18,10,45,20.30
2012,09,18,10,46,20.30
2012,09,18,10,47,20.30
2012,09,18,10,48,20.30
2012,09,18,10,49,20.30
2012,09,18,10,50,20.40
2012,09,18,10,51,20.40
2012,09,18,10,52,20.40
2012,09,18,10,53,20.40
2012,09,18,10,54,20.40
2012,09,18,10,55,20.30
2012,09,18,10,56,20.40
2012,09,18,10,57,20.40
2012,09,18,10,58,20.40
2012,09,18,10,59,20.30
2012,09,18,11,00,20.30
2012,09,18,11,01,20.30
2012,09,18,11,02,20.30
2012,09,18,11,03,20.30
2012,09,18,11,04,20.40
2012,09,18,11,05,20.40
2012,09,18,11,06,20.40
2012,09,18,11,07,20.40
2012,09,18,11,08,20.40
2012,09,18,11,09,20.40
2012,09,18,11,10,20.40
2012,09,18,11,11,20.40
2012,09,18,11,12,20.40
2012,09,18,11,13,20.40
2012,09,18,11,14,20.40
2012,09,18,11,15,20.40
2012,09,18,11,16,20.50
2012,09,18,11,17,20.50
2012,09,18,11,18,20.60
2012,09,18,11,19,20.60
2012,09,18,11,20,20.70
2012,09,18,11,21,20.70
2012,09,18,11,22,20.60
2012,09,18,11,23,20.60
2012,09,18,11,24,20.60
2012,09,18,11,25,20.60
2012,09,18,11,26,20.50
2012,09,18,11,27,20.50
2012,09,18,11,28,20.60
2012,09,18,11,29,20.60
2012,09,18,11,30,20.60
2012,09,18,11,31,20.50
2012,09,18,11,32,20.50
2012,09,18,11,33,20.40
2012,09,18,11,34,20.40
2012,09,18,11,35,20.40
2012,09,18,11,36,20.40
2012,09,18,11,37,20.40
2012,09,18,11,38,20.40
2012,09,18,11,39,20.40
2012,09,18,11,40,20.50
2012,09,18,11,41,20.60
2012,09,18,11,42,20.70
2012,09,18,11,43,20.70
2012,09,18,11,44,20.80
2012,09,18,11,45,20.80
2012,09,18,11,46,20.80
2012,09,18,11,47,20.80
2012,09,18,11,48,20.90
2012,09,18,11,49,20.90
2012,09,18,11,50,20.90
2012,09,18,11,51,20.90
2012,09,18,11,52,20.90
2012,09,18,11,53,21.00
2012,09,18,11,54,21.10
2012,09,18,11,55,21.20
2012,09,18,11,56,21.20
2012,09,18,11,57,21.20
2012,09,18,11,58,21.30
2012,09,18,11,59,21.40
2012,09,18,12,00,21.40
2012,09,18,12,01,21.50
2012,09,18,12,02,21.50
2012,09,18,12,03,21.50
2012,09,18,12,04,21.40
2012,09,18,12,05,21.40
2012,09,18,12,06,21.40
2012,09,18,12,07,21.40
2012,09,18,12,08,21.40
2012,09,18,12,09,21.40
2012,09,18,12,10,21.40
2012,09,18,12,11,21.40
2012,09,18,12,12,21.30
2012,09,18,12,13,21.30
2012,09,18,12,14,21.40
2012,09,18,12,15,21.40
2012,09,18,12,16,21.50
2012,09,18,12,17,21.60
2012,09,18,12,18,21.60
2012,09,18,12,19,21.60
2012,09,18,12,20,21.60
2012,09,18,12,21,21.60
2012,09,18,12,22,21.60
2012,09,18,12,23,21.60
2012,09,18,12,24,21.50
2012,09,18,12,25,21.50
2012,09,18,12,26,21.40
2012,09,18,12,27,21.30
2012,09,18,12,28,21.30
2012,09,18,12,29,21.30
2012,09,18,12,30,21.30
2012,09,18,12,31,21.30
2012,09,18,12,32,21.30
2012,09,18,12,33,21.50
2012,09,18,12,34,21.50
2012,09,18,12,35,21.60
2012,09,18,12,36,21.70
2012,09,18,12,37,21.70
2012,09,18,12,38,21.60
2012,09,18,12,39,21.60
2012,09,18,12,40,21.60
2012,09,18,12,41,21.60
2012,09,18,12,42,21.60
2012,09,18,12,43,21.70
2012,09,18,12,44,21.70
2012,09,18,12,45,21.70
2012,09,18,12,46,21.70
2012,09,18,12,47,21.70
2012,09,18,12,48,21.70
2012,09,18,12,49,21.80
2012,09,18,12,50,21.80
2012,09,18,12,51,21.80
2012,09,18,12,52,21.80
2012,09,18,12,53,21.80
2012,09,18,12,54,21.80
2012,09,18,12,55,21.90
2012,09,18,12,56,22.00
2012,09,18,12,57,22.10
2012,09,18,12,58,22.10
2012,09,18,12,59,22.20
2012,09,18,13,00,22.30
2012,09,18,13,01,22.30
2012,09,18,13,02,22.30
2012,09,18,13,03,22.40
2012,09,18,13,04,22.40
2012,09,18,13,05,22.40
2012,09,18,13,06,22.40
2012,09,18,13,07,22.40
2012,09,18,13,08,22.50
2012,09,18,13,09,22.50
2012,09,18,13,10,22.50
2012,09,18,13,11,22.50
2012,09,18,13,12,22.60
2012,09,18,13,13,22.70
2012,09,18,13,14,22.70
2012,09,18,13,15,22.80
2012,09,18,13,16,22.90
2012,09,18,13,17,22.90
2012,09,18,13,18,23.00
2012,09,18,13,19,23.10
2012,09,18,13,20,23.10
2012,09,18,13,21,23.10
2012,09,18,13,22,23.10
2012,09,18,13,23,23.20
2012,09,18,13,24,23.20
2012,09,18,13,25,23.20
2012,09,18,13,26,23.30
2012,09,18,13,27,23.30
2012,09,18,13,28,23.30
2012,09,18,13,29,23.30
2012,09,18,13,30,23.30
2012,09,18,13,31,23.20
2012,09,18,13,32,23.20
2012,09,18,13,33,23.20
2012,09,18,13,34,23.20
2012,09,18,13,35,23.30
2012,09,18,13,36,23.30
2012,09,18,13,37,23.30
2012,09,18,13,38,23.30
2012,09,18,13,39,23.40
2012,09,18,13,40,23.50
2012,09,18,13,41,23.60
2012,09,18,13,42,23.70
2012,09,18,13,43,23.70
2012,09,18,13,44,23.80
2012,09,18,13,45,23.80
2012,09,18,13,46,23.70
2012,09,18,13,47,23.70
2012,09,18,13,48,23.70
2012,09,18,13,49,23.80
2012,09,18,13,50,23.80
2012,09,18,13,51,23.80
2012,09,18,13,52,23.90
2012,09,18,13,53,23.90
2012,09,18,13,54,23.90
2012,09,18,13,55,24.00
2012,09,18,13,56,24.00
2012,09,18,13,57,24.10
2012,09,18,13,58,24.10
2012,09,18,13,59,24.10
2012,09,18,14,00,24.20
2012,09,18,14,01,24.10
2012,09,18,14,02,24.00
2012,09,18,14,03,23.80
2012,09,18,14,04,23.70
2012,09,18,14,05,23.50
2012,09,18,14,06,23.40
2012,09,18,14,07,23.40
2012,09,18,14,08,23.40
2012,09,18,14,09,23.40
2012,09,18,14,10,23.30
2012,09,18,14,11,23.30
2012,09,18,14,12,23.30
2012,09,18,14,13,23.30
2012,09,18,14,14,23.20
2012,09,18,14,15,23.20
2012,09,18,14,16,23.20
2012,09,18,14,17,23.20
2012,09,18,14,18,23.10
2012,09,18,14,19,23.00
2012,09,18,14,20,22.80
2012,09,18,14,21,22.60
2012,09,18,14,22,22.40
2012,09,18,14,23,22.30
2012,09,18,14,24,22.20
2012,09,18,14,25,22.20
2012,09,18,14,26,22.20
2012,09,18,14,27,22.20
2012,09,18,14,28,22.20
2012,09,18,14,29,22.20
2012,09,18,14,30,22.20
2012,09,18,14,31,22.10
2012,09,18,14,32,22.10
2012,09,18,14,33,22.00
2012,09,18,14,34,21.80
2012,09,18,14,35,21.60
2012,09,18,14,36,21.50
2012,09,18,14,37,21.40
2012,09,18,14,38,21.40
2012,09,18,14,39,21.40
2012,09,18,14,40,21.40
2012,09,18,14,41,21.40
2012,09,18,14,42,21.40
2012,09,18,14,43,21.30
2012,09,18,14,44,21.30
2012,09,18,14,45,21.30
2012,09,18,14,46,21.20
2012,09,18,14,47,21.20
2012,09,18,14,48,21.20
2012,09,18,14,49,21.20
2012,09,18,14,50,21.10
2012,09,18,14,51,21.10
2012,09,18,14,52,21.10
2012,09,18,14,53,21.10
2012,09,18,14,54,21.20
2012,09,18,14,55,21.30
2012,09,18,14,56,21.30
2012,09,18,14,57,21.40
2012,09,18,14,58,21.40
2012,09,18,14,59,21.40
2012,09,18,15,00,21.40
2012,09,18,15,01,21.50
2012,09,18,15,02,21.60
2012,09,18,15,03,21.60
2012,09,18,15,04,21.60
2012,09,18,15,05,21.70
2012,09,18,15,06,21.70
2012,09,18,15,07,21.70
2012,09,18,15,08,21.80
2012,09,18,15,09,21.70
2012,09,18,15,10,21.80
2012,09,18,15,11,21.80
2012,09,18,15,12,21.80
2012,09,18,15,13,21.80
2012,09,18,15,14,21.80
2012,09,18,15,15,21.80
2012,09,18,15,16,21.90
2012,09,18,15,17,22.00
2012,09,18,15,18,22.00
2012,09,18,15,19,22.10
2012,09,18,15,20,22.10
2012,09,18,15,21,22.20
2012,09,18,15,22,22.30
2012,09,18,15,23,22.30
2012,09,18,15,24,22.30
2012,09,18,15,25,22.30
2012,09,18,15,26,22.30
2012,09,18,15,27,22.40
2012,09,18,15,28,22.40
2012,09,18,15,29,22.40
2012,09,18,15,30,22.50
2012,09,18,15,31,22.50
2012,09,18,15,32,22.60
2012,09,18,15,33,22.60
2012,09,18,15,34,22.70
2012,09,18,15,35,22.70
2012,09,18,15,36,22.80
2012,09,18,15,37,22.80
2012,09,18,15,38,22.90
2012,09,18,15,39,22.90
2012,09,18,15,40,23.00
2012,09,18,15,41,23.10
2012,09,18,15,42,23.10
2012,09,18,15,43,23.10
2012,09,18,15,44,23.10
2012,09,18,15,45,23.10
2012,09,18,15,46,23.10
2012,09,18,15,47,23.10
2012,09,18,15,48,23.10
2012,09,18,15,49,23.20
2012,09,18,15,50,23.20
2012,09,18,15,51,23.20
2012,09,18,15,52,23.20
2012,09,18,15,53,23.20
2012,09,18,15,54,23.10
2012,09,18,15,55,23.10
2012,09,18,15,56,23.10
2012,09,18,15,57,23.10
2012,09,18,15,58,23.10
2012,09,18,15,59,23.10
2012,09,18,16,00,23.10
2012,09,18,16,01,23.10
2012,09,18,16,02,23.20
2012,09,18,16,03,23.30
2012,09,18,16,04,23.30
2012,09,18,16,05,23.40
2012,09,18,16,06,23.40
2012,09,18,16,07,23.50
2012,09,18,16,08,23.50
2012,09,18,16,09,23.50
2012,09,18,16,10,23.60
2012,09,18,16,11,23.60
2012,09,18,16,12,23.60
2012,09,18,16,13,23.60
2012,09,18,16,14,23.60
2012,09,18,16,15,23.60
2012,09,18,16,16,23.60
2012,09,18,16,17,23.60
2012,09,18,16,18,23.60
2012,09,18,16,19,23.70
2012,09,18,16,20,23.70
2012,09,18,16,21,23.70
2012,09,18,16,22,23.60
2012,09,18,16,23,23.50
2012,09,18,16,24,23.50
2012,09,18,16,25,23.50
2012,09,18,16,26,23.40
2012,09,18,16,27,23.40
2012,09,18,16,28,23.40
2012,09,18,16,29,23.40
2012,09,18,16,30,23.40
2012,09,18,16,31,23.40
2012,09,18,16,32,23.40
2012,09,18,16,33,23.40
2012,09,18,16,34,23.40
2012,09,18,16,35,23.40
2012,09,18,16,36,23.50
2012,09,18,16,37,23.50
2012,09,18,16,38,23.50
2012,09,18,16,39,23.50
2012,09,18,16,40,23.50
2012,09,18,16,41,23.40
2012,09,18,16,42,23.40
2012,09,18,16,43,23.40
2012,09,18,16,44,23.50
2012,09,18,16,45,23.50
2012,09,18,16,46,23.50
2012,09,18,16,47,23.60
2012,09,18,16,48,23.60
2012,09,18,16,49,23.60
2012,09,18,16,50,23.60
2012,09,18,16,51,23.60
2012,09,18,16,52,23.60
2012,09,18,16,53,23.60
2012,09,18,16,54,23.60
2012,09,18,16,55,23.60
2012,09,18,16,56,23.70
2012,09,18,16,57,23.70
2012,09,18,16,58,23.70
2012,09,18,16,59,23.70
2012,09,18,17,00,23.60
2012,09,18,17,01,23.60
2012,09,18,17,02,23.60
2012,09,18,17,03,23.50
2012,09,18,17,04,23.50
2012,09,18,17,05,23.40
2012,09,18,17,06,23.40
2012,09,18,17,07,23.30
2012,09,18,17,08,23.30
2012,09,18,17,09,23.30
2012,09,18,17,10,23.20
2012,09,18,17,11,23.20
2012,09,18,17,12,23.10
2012,09,18,17,13,23.10
2012,09,18,17,14,23.10
2012,09,18,17,15,23.00
2012,09,18,17,16,23.00
2012,09,18,17,17,22.90
2012,09,18,17,18,22.90
2012,09,18,17,19,22.80
2012,09,18,17,20,22.80
2012,09,18,17,21,22.70
2012,09,18,17,22,22.60
2012,09,18,17,23,22.60
2012,09,18,17,24,22.50
2012,09,18,17,25,22.40
2012,09,18,17,26,22.40
2012,09,18,17,27,22.30
2012,09,18,17,28,22.30
2012,09,18,17,29,22.20
2012,09,18,17,30,22.10
2012,09,18,17,31,22.00